カタログに戻る

STARLINK-35853

運用中通信VLEO
NORAD 67177·PAYLOAD·🇺🇸 United States

打ち上げ Dec 17, 2025 から Cape Canaveral Space Force Station

Loading…

次のパス (今後24時間)

TLE

最新Source: CelesTrak SupGP

元期: Sep 14, 2026, 23:18 UTC

1 67177C 25303Q   26257.97131944  .00003148  00000+0  11403-3 0  2575
2 67177  43.0037 321.8221 0001806 269.0062  50.2985 15.27576828    17

AllMySatでSTARLINK-35853をリアルタイム追跡

Download on the App Store